[[{"header":{"parameterUnit":"m.s-1","parameterCategory":1,"la1":30.2991,"la2":30.254,"lo1":-89.0895,"lo2":-89.0444,"dy":0.0017,"dx":0.0017,"nx":28,"ny":28,"refTime":"2024-03-03T09:00:00:Z","depth":0,"parameterNumber":2,"parameterNumberName":"U-component_of_WINDS"},"data":[0,0,0,0,0,0,0,0,0,0,0,0,0,0,0,0,0,0,0,0,0,0,0,0,0,0,0,0,0,0,0,0,0,0,0,0,0,0,0,0,0,0,0,0,0,0,0,0,0,0,0,0,0,0,0,0,0,0,-0.4185,-0.4184,0,-0.4152,-0.4151,-0.4151,-0.413,-0.413,-0.413,-0.413,-0.4097,-0.4097,-0.4096,0,0,0,0,0,0,0,0,0,0,0,0,0,-0.4231,-0.4231,-0.4185,-0.4184,-0.4184,-0.4152,-0.4151,-0.4151,-0.413,-0.413,-0.413,-0.413,-0.4098,-0.4097,-0.4096,0,0,0,0,0,0,0,0,0,0,0,0,0,-0.4206,-0.423,-0.4185,-0.417,-0.4168,-0.4152,-0.4151,-0.4151,-0.413,-0.413,-0.413,-0.413,-0.4098,-0.4097,-0.4096,-0.4092,0,0,-0.4092,-0.4092,0,0,0,0,0,0,0,0,-0.4207,-0.4204,-0.4172,-0.4171,-0.4169,-0.4145,-0.4156,-0.4131,-0.413,-0.4145,-0.413,-0.413,-0.4113,-0.4111,-0.4105,-0.4091,-0.4089,-0.4092,-0.4092,-0.4091,-0.4091,0,0,0,0,0,0,0,-0.4209,-0.4206,-0.4172,-0.4172,-0.417,-0.4165,-0.4161,-0.4151,-0.413,-0.4143,-0.4142,-0.4138,-0.4112,-0.4106,-0.4104,-0.4089,-0.4092,-0.4091,-0.4091,-0.409,-0.407,-0.407,0,0,0,0,0,0,-0.4213,-0.4207,-0.4173,-0.4171,-0.4188,-0.4164,-0.416,-0.4153,-0.413,-0.4127,-0.4138,-0.4137,-0.4108,-0.4106,-0.4103,-0.4098,-0.4091,-0.409,-0.4089,-0.407,-0.407,-0.407,0,0,0,0,0,0,-0.4214,-0.421,-0.4174,-0.4188,-0.4183,-0.4164,-0.4156,-0.4152,-0.4146,-0.4127,-0.4123,-0.4136,-0.4108,-0.4105,-0.4095,-0.4096,-0.4089,-0.4088,-0.407,-0.407,-0.407,-0.4087,0,0,0,0,0,0,-0.4216,-0.4211,-0.4209,-0.4189,-0.4183,-0.4166,-0.4156,-0.4152,-0.4144,-0.4142,-0.4123,-0.412,-0.4108,-0.4097,-0.4094,-0.4095,-0.4088,-0.407,-0.407,-0.407,-0.4086,-0.4087,-0.4089,0,0,0,0,0,-0.4217,-0.4215,-0.4209,-0.4205,-0.418,-0.4166,-0.4163,-0.4148,-0.4144,-0.4142,-0.413,-0.4121,-0.4097,-0.4096,-0.4093,-0.4093,-0.407,-0.407,-0.407,-0.4085,-0.4087,-0.4089,0,0,0,0,0,0,-0.4236,-0.4212,-0.4205,-0.4196,-0.4183,-0.4163,-0.416,-0.4151,-0.4139,-0.4138,-0.4121,-0.4117,-0.4109,-0.41,-0.41,-0.4089,-0.4082,-0.4082,-0.4095,-0.4096,-0.4098,-0.41,-0.4087,0,0,0,0,0,-0.4239,-0.423,-0.4209,-0.4203,-0.4197,-0.418,-0.4173,-0.4163,-0.415,-0.4144,-0.4131,-0.4119,-0.4108,-0.4102,-0.4091,-0.4085,-0.408,-0.4083,-0.4085,-0.4086,-0.4086,-0.4082,-0.4083,-0.4072,-0.4072,-0.4072,0,0,-0.4246,-0.4231,-0.4226,-0.4207,-0.4196,-0.4187,-0.4175,-0.4166,-0.4159,-0.4143,-0.4133,-0.4123,-0.4108,-0.41,-0.4096,-0.4092,-0.4088,-0.4086,-0.4087,-0.4086,-0.4082,-0.4083,-0.4084,-0.4072,-0.4072,-0.4072,0,0,-0.4252,-0.424,-0.4234,-0.4223,-0.4207,-0.4195,-0.4194,-0.4175,-0.4167,-0.4157,-0.4144,-0.4136,-0.4119,-0.4109,-0.4101,-0.4105,-0.4096,-0.4102,-0.4109,-0.4106,-0.4106,-0.4107,-0.4109,-0.4109,-0.4102,-0.4102,-0.4102,0,-0.4262,-0.4248,-0.4232,-0.4223,-0.4215,-0.42,-0.4194,-0.4184,-0.4165,-0.416,-0.4156,-0.4134,-0.4123,-0.4112,-0.4113,-0.4108,-0.4106,-0.4104,-0.4107,-0.4108,-0.4108,-0.411,-0.411,-0.4103,-0.4103,-0.4103,-0.4103,0,-0.4261,-0.4251,-0.4248,-0.4229,-0.4221,-0.4214,-0.4198,-0.4191,-0.4182,-0.4171,-0.4161,-0.4147,-0.4134,-0.413,-0.4122,-0.4119,-0.4117,-0.4111,-0.4104,-0.4111,-0.4111,-0.4112,-0.4104,-0.4104,-0.4103,-0.4103,0,0,-0.4278,-0.4251,-0.4251,-0.4242,-0.4223,-0.4215,-0.4207,-0.4194,-0.4189,-0.4176,-0.417,-0.4155,-0.4149,-0.4141,-0.4131,-0.4128,-0.4132,-0.4122,-0.4121,-0.4124,-0.4128,-0.4133,-0.4134,-0.4126,-0.4126,-0.4126,-0.4129,0,-0.4282,-0.4267,-0.4253,-0.4243,-0.4233,-0.4219,-0.4212,-0.42,-0.419,-0.4181,-0.417,-0.416,-0.4153,-0.4148,-0.4144,-0.4132,-0.4132,-0.4132,-0.412,-0.412,-0.4124,-0.4134,-0.4139,-0.4143,-0.413,-0.413,-0.413,0,-0.4284,-0.4272,-0.4261,-0.4243,-0.4239,-0.4233,-0.4219,-0.4211,-0.4197,-0.419,-0.4181,-0.417,-0.4162,-0.4156,-0.4145,-0.4145,-0.4139,-0.4133,-0.4133,-0.4131,-0.4125,-0.4133,-0.4144,-0.4145,-0.413,-0.413,-0.413,0,-0.4298,-0.4279,-0.427,-0.4263,-0.4242,-0.4238,-0.4229,-0.4215,-0.4208,-0.4196,-0.4192,-0.418,-0.4173,-0.4164,-0.4151,-0.4148,-0.4141,-0.4134,-0.4135,-0.4136,-0.4134,-0.4135,-0.4145,-0.4131,-0.4131,-0.4131,-0.4131,0,-0.4304,-0.4297,-0.4276,-0.427,-0.4263,-0.4247,-0.4241,-0.4231,-0.4219,-0.4211,-0.4198,-0.4192,-0.4175,-0.4166,-0.4156,-0.4148,-0.4146,-0.414,-0.4137,-0.4141,-0.4142,-0.4137,-0.4136,-0.4131,-0.4131,-0.4131,-0.4131,0,-0.4318,-0.4303,-0.4292,-0.4273,-0.4268,-0.4263,-0.4247,-0.4241,-0.4231,-0.4221,-0.4218,-0.4202,-0.4191,-0.4177,-0.4163,-0.4156,-0.4149,-0.4145,-0.4154,-0.4152,-0.4154,-0.4154,-0.4162,-0.4162,-0.4148,-0.4148,-0.4148,0,-0.4322,-0.4317,-0.4297,-0.4291,-0.4282,-0.4272,-0.4265,-0.425,-0.4243,-0.4227,-0.4223,-0.4212,-0.4202,-0.4186,-0.4173,-0.4161,-0.4157,-0.416,-0.4155,-0.4159,-0.4157,-0.4157,-0.4157,-0.4162,-0.4162,-0.4162,-0.4162,0,-0.4331,-0.4324,-0.4314,-0.4301,-0.4292,-0.4281,-0.427,-0.4266,-0.4248,-0.4241,-0.423,-0.4222,-0.4207,-0.4196,-0.4183,-0.4175,-0.4166,-0.4164,-0.4164,-0.4167,-0.4172,-0.417,-0.4157,-0.4164,-0.4164,-0.4163,-0.4163,-0.4163,-0.4341,-0.4335,-0.4321,-0.4309,-0.4299,-0.4289,-0.4283,-0.4271,-0.4261,-0.4248,-0.4239,-0.4229,-0.4216,-0.4198,-0.4189,-0.4181,-0.4178,-0.4177,-0.4177,-0.4177,-0.4178,-0.4174,-0.4179,-0.4179,-0.4179,-0.4179,-0.4179,0,-0.4349,-0.4339,-0.4329,-0.4313,-0.4305,-0.4296,-0.4284,-0.4277,-0.4268,-0.4256,-0.4246,-0.4234,-0.4223,-0.421,-0.4198,-0.4194,-0.419,-0.4192,-0.4192,-0.419,-0.4182,-0.4184,-0.4196,-0.4196,-0.4196,-0.4196,-0.4196,-0.4196,-0.4353,-0.4343,-0.4335,-0.4321,-0.4311,-0.43,-0.4293,-0.4284,-0.4275,-0.4261,-0.4252,-0.4243,-0.4231,-0.4218,-0.4208,-0.4205,-0.4201,-0.4204,-0.4199,-0.4192,-0.4191,-0.4189,-0.419,-0.4204,-0.4204,-0.4208,-0.4208,-0.4208]},{"header":{"parameterUnit":"m.s-1","parameterCategory":1,"la1":30.2991,"la2":30.254,"lo1":-89.0895,"lo2":-89.0444,"dy":0.0017,"dx":0.0017,"nx":28,"ny":28,"refTime":"2024-03-03T09:00:00:Z","depth":0,"parameterNumber":3,"parameterNumberName":"V-component_of_WINDS"},"data":[0,0,0,0,0,0,0,0,0,0,0,0,0,0,0,0,0,0,0,0,0,0,0,0,0,0,0,0,0,0,0,0,0,0,0,0,0,0,0,0,0,0,0,0,0,0,0,0,0,0,0,0,0,0,0,0,0,0,0.6686,0.6685,0,0.664,0.664,0.6639,0.6603,0.6602,0.6602,0.6602,0.6552,0.6551,0.655,0,0,0,0,0,0,0,0,0,0,0,0,0,0.6739,0.6738,0.6686,0.6685,0.6685,0.664,0.664,0.6639,0.6603,0.6602,0.6602,0.6601,0.6552,0.6551,0.655,0,0,0,0,0,0,0,0,0,0,0,0,0,0.6707,0.6738,0.6686,0.6661,0.6659,0.664,0.6639,0.6639,0.6603,0.6602,0.6602,0.6601,0.6552,0.6551,0.6549,0.6551,0,0,0.6545,0.6544,0,0,0,0,0,0,0,0,0.6709,0.6705,0.6666,0.6663,0.666,0.6627,0.664,0.6609,0.6603,0.6624,0.6602,0.6601,0.6577,0.6573,0.6566,0.6548,0.6546,0.6545,0.6544,0.6543,0.6543,0,0,0,0,0,0,0,0.6711,0.6707,0.6668,0.6665,0.6662,0.6652,0.6646,0.6634,0.6604,0.6622,0.6619,0.6615,0.6575,0.6567,0.6564,0.6546,0.6545,0.6543,0.6542,0.6542,0.6526,0.6527,0,0,0,0,0,0,0.6717,0.6709,0.6669,0.6666,0.6684,0.6651,0.6645,0.6638,0.6604,0.6598,0.6615,0.6613,0.657,0.6566,0.6562,0.6561,0.6543,0.6542,0.6541,0.6526,0.6526,0.6527,0,0,0,0,0,0,0.6719,0.6714,0.6671,0.6687,0.668,0.6651,0.6643,0.6637,0.6629,0.6599,0.6593,0.6613,0.6569,0.6564,0.6554,0.6559,0.6541,0.654,0.6525,0.6526,0.6526,0.6559,0,0,0,0,0,0,0.672,0.6715,0.6716,0.6687,0.668,0.6664,0.6643,0.6637,0.6627,0.6624,0.6595,0.6589,0.6569,0.6556,0.6552,0.6556,0.6538,0.6524,0.6525,0.6526,0.6557,0.656,0.6563,0,0,0,0,0,0.6722,0.6726,0.6716,0.6711,0.668,0.6665,0.666,0.6637,0.6628,0.6628,0.6608,0.659,0.6559,0.6556,0.6551,0.6554,0.6524,0.6525,0.6526,0.6556,0.656,0.6563,0,0,0,0,0,0,0.6755,0.6722,0.671,0.6705,0.6688,0.6659,0.6658,0.6643,0.6627,0.6625,0.6596,0.6589,0.6582,0.6567,0.6564,0.6553,0.6539,0.6539,0.6563,0.6567,0.657,0.6573,0.6537,0,0,0,0,0,0.6762,0.6753,0.6724,0.6722,0.6714,0.6688,0.668,0.6664,0.6645,0.6637,0.6616,0.6597,0.6583,0.6574,0.656,0.6555,0.6548,0.6555,0.6558,0.6561,0.6561,0.6557,0.6559,0.653,0.653,0.653,0,0,0.6775,0.6756,0.6752,0.6728,0.6713,0.6703,0.6682,0.6673,0.6665,0.6635,0.6624,0.6608,0.6585,0.6578,0.6573,0.6565,0.6568,0.6563,0.6565,0.6563,0.6558,0.6561,0.6563,0.6531,0.6531,0.6531,0,0,0.6795,0.678,0.6777,0.6762,0.674,0.6722,0.6722,0.6695,0.6683,0.6672,0.6649,0.6639,0.6616,0.66,0.6589,0.6603,0.6586,0.6599,0.6615,0.6611,0.6613,0.6615,0.6619,0.6621,0.6599,0.66,0.66,0,0.6814,0.68,0.6777,0.6769,0.6758,0.6733,0.6728,0.6715,0.6689,0.6682,0.6673,0.6643,0.6626,0.6614,0.6617,0.661,0.6607,0.6602,0.6615,0.6617,0.6618,0.6621,0.6623,0.6601,0.6601,0.6601,0.6601,0,0.6824,0.6814,0.6814,0.679,0.678,0.6774,0.6749,0.6741,0.6726,0.6709,0.6697,0.6676,0.6656,0.6652,0.6637,0.6638,0.6633,0.6621,0.6605,0.6623,0.6625,0.6627,0.6604,0.6603,0.6603,0.6602,0,0,0.6862,0.6826,0.6826,0.6815,0.6789,0.678,0.6773,0.6754,0.6748,0.6731,0.6723,0.6704,0.6692,0.6679,0.6662,0.6659,0.667,0.6646,0.6645,0.665,0.6668,0.6677,0.6679,0.6659,0.6659,0.6659,0.667,0,0.6876,0.6862,0.6841,0.6833,0.6823,0.6799,0.6792,0.6775,0.6759,0.6747,0.6729,0.6716,0.6702,0.6694,0.669,0.667,0.6673,0.6669,0.665,0.6649,0.6655,0.6681,0.669,0.6701,0.6671,0.6671,0.6671,0,0.6891,0.6876,0.6868,0.6842,0.6837,0.6832,0.6813,0.6803,0.6782,0.6771,0.6757,0.6739,0.6728,0.6716,0.67,0.6698,0.6689,0.6678,0.6678,0.6674,0.666,0.6677,0.6704,0.6706,0.6673,0.6672,0.6672,0,0.6918,0.6896,0.6888,0.6879,0.685,0.6846,0.6833,0.6813,0.6803,0.6786,0.6779,0.6762,0.6752,0.6738,0.6715,0.6708,0.6701,0.6687,0.669,0.6691,0.6689,0.6689,0.6714,0.6685,0.6685,0.6685,0.6685,0,0.6936,0.6931,0.69,0.6895,0.6889,0.6865,0.6859,0.6844,0.6826,0.6816,0.6794,0.6786,0.6756,0.6744,0.6726,0.6715,0.6711,0.6701,0.6696,0.6702,0.6703,0.6695,0.6693,0.6686,0.6686,0.6686,0.6686,0,0.6964,0.6944,0.6933,0.6906,0.6899,0.6896,0.6872,0.6866,0.6849,0.6837,0.6833,0.6806,0.6791,0.6767,0.6744,0.6732,0.6724,0.6716,0.6731,0.6728,0.6732,0.6731,0.6752,0.6753,0.6724,0.6725,0.6725,0,0.6977,0.6973,0.6946,0.6938,0.6927,0.6915,0.6906,0.6882,0.6872,0.6849,0.6845,0.6828,0.6813,0.6789,0.6767,0.6749,0.674,0.6748,0.6737,0.6743,0.6739,0.6739,0.6738,0.6751,0.6751,0.6751,0.6752,0,0.7,0.699,0.6977,0.6961,0.695,0.6936,0.692,0.6915,0.6888,0.6878,0.6863,0.6851,0.6828,0.6811,0.679,0.6776,0.6759,0.6756,0.6755,0.6761,0.6769,0.6764,0.6737,0.6755,0.6755,0.6754,0.6754,0.6754,0.702,0.7015,0.6995,0.6982,0.6968,0.6954,0.6947,0.6929,0.6916,0.6896,0.6883,0.6868,0.6847,0.6817,0.6804,0.6791,0.6784,0.6783,0.6783,0.6783,0.6785,0.6773,0.6787,0.6787,0.6787,0.6787,0.6787,0,0.7041,0.7027,0.7015,0.6995,0.6984,0.6971,0.6953,0.6944,0.6932,0.6914,0.69,0.6882,0.6865,0.6842,0.6824,0.6818,0.6809,0.6813,0.6813,0.681,0.6793,0.6795,0.682,0.682,0.682,0.682,0.682,0.682,0.7051,0.7042,0.703,0.7013,0.6999,0.6985,0.6976,0.6963,0.6949,0.693,0.6916,0.6902,0.6881,0.6861,0.6845,0.6838,0.6832,0.6838,0.6829,0.6814,0.6811,0.6808,0.6809,0.6837,0.6838,0.6847,0.6847,0.6847]}]]